Location: Ferchesar
(52.6477°N, 12.4298°E)
Time: 16:06:58
(UTC+01:00)

Explorer 7 - Pass Details

Date: 07 December 2021
Orbit: 483 x 674 km, 50.3° (Epoch: 23 January)

Event Time Altitude Azimuth Distance (km) Brightness Sun altitude
Rises 04:46:54 0° 217° (SW) 2,866 - -29.0°
Reaches altitude 10° 04:49:33 10° 204° (SSW) 1,928 - -28.6°
Exits shadow 04:53:05 25° 151° (SSE) 1,181 8.7 -28.1°
Maximum altitude 04:53:09 25° 149° (SSE) 1,180 8.7 -28.1°
Drops below altitude 10° 04:56:35 10° 94° (E) 1,835 10.5 -27.6°
Sets 04:59:02 0° 81° (E) 2,695 11.6 -27.2°
